Regional Weather Roundup
Issued by NWS Midland/Odessa, TX

Home | Current Version | Previous Version | Text Only | Print | Product List | Glossary On
Versions: 1 2 3 4 5 6 7 8 9 10 11 12 13 14 15 16 17 18 19 20 21 22 23 24 25 26 27 28 29 30 31 32 33 34 35 36 37 38 39 40 41 42 43 44 45 46 47 48 49 50
000
ASUS44 KMAF 111510
RWRMAF
MIDLAND AREA WEATHER ROUNDUP
NATIONAL WEATHER SERVICE MIDLAND TX
900 AM CST MON DEC 11 2017

...IN SOUTHWEST TEXAS AND SOUTHEAST NEW MEXICO...

CITY           SKY/WX    TMP DP  RH WIND       PRES   REMARKS
ALPINE         MOSUNNY   46  23  40 SW6       30.44S
ANDREWS        FAIR      39  23  53 NW7       30.33S WCI  34
ARTESIA        CLOUDY    30   7  37 NW8       30.36S WCI  23
BIG SPRING     CLOUDY    36  29  76 SW3       30.36S
CARLSBAD       CLOUDY    33  28  81 W3        30.34S
DRYDEN           N/A     46  30  53 SW9       30.35R
FORT STOCKTON  CLOUDY    44  27  51 SW13      30.35F WCI  38
GUAD PASS      CLOUDY    36  23  59 SW12      30.39S WCI  28
HOBBS          SUNNY     36  16  44 NW8       30.33S WCI  29
LAMESA         FAIR      37  23  56 NW10      30.33S WCI  30
MARFA          CLOUDY    32  27  81 SE5       30.43S WCI  27
MIDLAND AIRPK  CLOUDY    42  31  62 CALM      30.34S
MIDLAND INTL   MOSUNNY   43  30  60 W5        30.33S
ODESSA           N/A     40  32  73 CALM      30.33S
PECOS          CLOUDY    33  31  90 CALM      30.36F
PRESIDIO       FAIR      42  34  75 N5        30.45S WCI  39
SEMINOLE       CLOUDY    35  19  52 NW8       30.34R WCI  29
SNYDER         CLOUDY    35  23  60 SW5       30.32S WCI  31
WINK           CLOUDY    33  28  81 CALM      30.34S
$$
...OTHER STATIONS IN TEXAS...

CITY           SKY/WX    TMP DP  RH WIND       PRES   REMARKS
ABILENE        SUNNY     45  23  42 CALM      30.30F
AMARILLO       CLOUDY    33  10  38 NW9       30.29R WCI  25
AUSTIN         CLOUDY    52  37  56 W3        30.31S
BROWNSVILLE    MOSUNNY   57  49  74 NW5       30.38F
CORPUS CHRISTI PTSUNNY   50  42  74 NW5       30.38S
DALLAS FTW     PTSUNNY   50  27  40 SW6       30.24F
DEL RIO        CLOUDY    43  42  97 NW5       30.37S
EL PASO        CLOUDY    37  16  42 N8        30.41R WCI  31
HOUSTON INT    PTSUNNY   51  39  63 W5        30.32F
LUBBOCK        CLOUDY    32  13  45 NW6       30.30F WCI  26
SAN ANGELO     CLOUDY    37  27  67 W5        30.34S WCI  33
SAN ANTONIO    MOSUNNY   52  37  56 NW3       30.34S
WACO           SUNNY     44  35  70 SW3       30.29F
WICHITA FALLS  MOSUNNY   47  11  23 NW20G25   30.13R WCI  40
$$
...OTHER LOCATIONS IN NEW MEXICO...

CITY           SKY/WX    TMP DP  RH WIND       PRES   REMARKS
ALAMOGORDO     CLOUDY    25  12  58 CALM      30.42S
ALBUQUERQUE    CLOUDY    28   4  35 N9        30.47R WCI  19
CANNON AFB     CLOUDY    37   6  27 NW8       30.32R WCI  30
CLOVIS         CLOUDY    36   7  29 W8        30.31R WCI  30
HOLLOMAN AFB   CLOUDY    26   7  44 CALM      30.44S
ROSWELL        CLOUDY    29  10  45 CALM      30.35R
RUIDOSO        CLOUDY    39  -6  14 W8        30.44R WCI  34
SANTA FE       CLOUDY    22   1  40 N17       30.44S WCI   8
TRUTH OR CONSE MOCLDY    31   2  29 N6        30.44R WCI  25
TUCUMCARI      CLOUDY    33   7  33 W7        30.30R WCI  27
$$



USA.gov is the U.S. government's official web portal to all federal, state and local government web resources and services.